Location: Constantia
(34.0183°S, 18.4411°E)
Time: 16:15:20
(UTC+00:00)

Cosmos 1624 Rocket - Pass Details

Date: 17 February 2020
Orbit: 757 x 784 km, 74.0° (Epoch: 06 April)

Event Time Altitude Azimuth Distance (km) Brightness Sun altitude
Exits shadow 02:01:15 76° 37° (NE) 810 4.0 -26.9°
Maximum altitude 02:01:32 79° 75° (ENE) 802 4.0 -26.8°
Drops below altitude 10° 02:06:54 10° 160° (SSE) 2,360 7.2 -26.0°
Sets 02:09:19 0° 161° (SSE) 3,298 8.1 -25.6°
